Dewpoint
24 16 12 13 14 12 13 13 13 16 18 24 26 30 35 40 42 43 44 45 46 47 49 52 54 57 58 58 58 59 58 57 56 54 50 46 45 44 43 42 42 42 41 41
19 15 18 23 18 18 17 16 18 21 22 22 29 32 37 39 41 42 44 45 46 48 49 50 52 54 56 57 58 58 57 55 53 50 47 45 43 43 42 41 41 41 42 42
19 18 23 24 24 22 23 20 20 19 23 25 25 25 32 39 42 43 44 45 46 46 45 46 48 50 52 53 54 52 51 52 51 48 47 45 44 43 41 41 40 41 42 42
23 26 23 24 25 24 22 25 22 20 16 17 22 14 26 36 40 42 43 43 44 44 45 45 45 44 45 45 46 45 45 45 46 46 45 44 41 40 42 42 41 40 42 43
23 24 23 23 23 24 25 26 25 24 23 21 26 18 22 36 38 40 41 42 43 44 44 43 42 42 43 45 45 45 45 45 45 45 45 43 43 43 43 43 43 42 42 42
26 28 27 26 28 27 31 29 29 29 27 20 26 26 25 30 34 39 40 41 42 43 43 42 42 43 43 45 45 44 44 43 44 44 44 44 43 41 39 39 39 39 40 41
26 27 27 28 27 28 28 25 18 18 21 18 28 27 27 31 33 39 39 40 42 42 42 42 42 42 43 43 42 42 43 42 42 41 40 39 38 35 32 33 32 34 36 38
22 19 25 26 26 25 28 25 21 15 21 23 27 26 27 34 36 37 39 40 41 42 43 43 43 44 44 44 41 42 42 38 35 35 35 35 34 32 32 34 34 35 36 36
23 22 26 26 30 27 28 25 27 25 27 22 22 28 30 35 36 37 38 40 41 42 42 43 44 44 43 42 42 43 37 34 33 33 34 33 34 35 35 36 38 38 38 38
27 22 25 24 27 28 26 29 24 24 12 6 17 23 23 32 34 37 38 39 40 40 40 40 40 40 39 39 37 35 32 30 30 31 32 32 33 34 35 37 38 38 38 37
27 24 22 25 22 25 26 25 27 27 23 7 6 11 29 31 35 36 38 39 40 39 38 36 36 35 32 31 31 30 29 29 31 29 31 32 32 33 33 33 34 34 36 37
28 24 21 22 25 28 26 25 25 15 16 25 23 15 32 34 35 37 37 38 38 36 34 34 34 34 34 35 35 34 35 34 32 31 31 30 31 32 32 31 31 33 34 36
27 23 20 20 22 27 25 27 24 23 26 22 13 6 32 35 36 37 37 36 36 35 34 34 33 32 33 34 35 33 29 26 26 25 24 26 30 30 29 30 31 31 32 34
28 25 20 18 16 24 22 25 25 22 17 17 18 15 25 33 35 36 36 36 36 35 34 33 32 32 32 33 32 26 25 25 23 23 23 28 30 30 30 31 30 32 34 34
28 22 25 26 27 24 19 20 26 22 20 14 14 18 20 28 34 36 37 36 35 34 33 32 31 31 30 28 25 23 22 22 23 23 24 29 32 31 30 30 32 33 35 35
32 25 26 25 28 26 22 22 20 22 20 21 20 20 23 32 36 37 37 36 34 33 32 31 32 30 27 25 22 19 20 21 23 23 25 30 32 31 30 31 32 34 34 33
28 27 25 18 23 18 17 20 22 22 23 20 19 21 34 35 36 37 38 36 34 32 32 32 32 27 27 20 19 19 20 22 23 23 25 28 31 30 30 31 32 32 32 33
26 23 19 12 13 -0 10 24 23 22 24 25 27 29 34 35 37 38 38 36 34 32 32 32 29 25 20 19 20 22 23 23 23 24 24 26 29 29 31 32 31 32 33 34
28 23 17 10 9 10 7 18 23 24 16 27 27 32 35 36 37 37 37 36 33 33 33 31 24 19 18 20 22 23 23 24 23 23 26 27 29 30 31 30 30 31 32 31
28 25 20 19 6 1 5 24 32 28 19 28 32 33 35 36 33 34 37 35 32 33 31 22 17 19 21 22 24 24 23 23 23 27 29 29 31 32 30 30 29 30 26 25
31 30 26 20 16 16 18 27 29 17 11 32 34 35 36 34 35 35 37 35 34 25 16 18 20 20 21 24 25 24 23 22 26 28 29 31 32 32 32 29 28 27 27 28
24 24 25 23 22 13 24 30 24 26 29 33 36 36 36 35 34 36 34 26 18 17 19 20 20 20 23 25 26 25 24 24 28 30 29 28 26 26 30 29 25 25 30 29
23 26 22 24 19 25 26 31 34 34 32 34 36 37 37 35 34 32 24 18 17 18 20 21 20 22 23 24 26 26 26 27 28 28 28 27 26 28 29 27 27 27 26 27
31 30 27 26 25 28 29 31 35 38 37 37 38 38 37 36 33 25 18 18 19 20 21 21 21 22 23 25 27 27 27 28 27 26 27 28 27 27 28 28 27 26 25 24
29 31 29 29 29 31 32 36 36 37 39 38 38 37 36 32 23 21 22 19 20 22 21 22 23 24 24 27 27 27 28 27 24 25 25 26 28 28 27 26 24 23 24 25
32 29 26 23 28 28 30 37 38 38 38 37 34 29 28 28 28 24 21 21 22 23 22 23 25 26 26 27 27 26 26 24 24 26 26 27 28 28 27 25 23 24 26 24
Wind_Speed
3 6 9 6 3 4 5 6 6 2 2 7 6 6 7 4 8 9 7 6 6 7 5 7 11 13 17 18 20 20 20 11 14 6 8 9 6 4 5 6 7 8 8 8
4 5 1 5 5 6 5 8 4 5 4 5 5 7 7 7 4 5 10 9 10 12 11 11 12 13 14 16 14 11 13 15 13 13 10 4 5 3 4 6 7 6 6 7
7 3 3 6 7 12 8 7 4 5 7 10 5 2 2 6 8 9 9 10 11 14 15 12 10 10 9 12 12 13 12 10 9 8 7 6 5 4 5 3 4 6 6 7
6 3 6 7 5 5 7 2 6 8 3 3 3 4 2 3 6 9 11 11 10 11 9 10 12 13 11 10 10 13 12 12 11 7 4 3 2 2 3 3 3 3 4 4
1 4 5 6 2 3 5 6 7 5 6 4 2 2 2 6 7 11 11 10 10 9 11 14 13 11 6 5 7 9 11 8 6 6 6 5 7 6 5 2 1 1 1 1
5 2 3 3 6 7 13 7 8 6 3 2 1 3 3 6 7 14 12 12 13 13 11 10 9 10 8 5 5 7 8 9 8 9 10 9 8 4 2 3 4 4 4 4
4 3 2 3 6 5 5 5 0 1 3 6 1 4 6 3 8 21 22 18 17 14 13 12 10 7 5 6 6 6 8 8 7 9 8 8 6 4 5 5 6 7 5 6
5 3 3 4 2 5 3 4 5 5 4 2 2 5 2 3 5 9 16 19 17 15 12 10 9 8 7 6 6 7 8 8 6 6 7 5 2 3 3 5 6 7 8 10
5 2 1 4 2 2 4 3 3 7 2 1 2 4 5 1 3 12 19 17 16 14 10 9 7 7 7 7 5 7 9 7 5 4 3 1 2 4 7 9 9 9 10 10
5 5 0 2 2 10 2 9 3 2 4 4 3 6 7 4 8 12 18 19 12 6 6 7 7 7 8 8 8 8 6 4 2 3 5 6 6 6 8 8 11 12 14 13
5 4 3 1 1 6 4 3 6 5 2 3 2 4 4 8 12 20 19 10 9 9 10 11 10 9 9 9 7 7 6 5 4 3 3 4 6 6 7 8 10 12 12 12
2 5 5 3 1 1 1 4 6 4 5 2 2 6 2 5 10 10 9 8 11 13 13 12 10 9 9 10 9 7 5 6 7 4 4 5 6 7 6 7 10 10 12 13
8 2 6 1 1 0 4 4 5 7 4 7 5 4 2 2 4 8 14 12 14 14 12 9 8 8 9 8 7 6 8 8 7 6 7 8 6 6 7 8 9 11 13 14
3 4 5 13 3 3 6 7 9 6 5 6 11 6 7 10 10 11 14 16 15 12 10 8 7 8 7 6 5 8 6 5 6 8 9 7 5 5 6 7 10 12 12 11
3 5 3 2 1 2 4 8 15 15 8 11 8 14 8 14 18 17 15 15 14 11 9 8 8 6 6 7 6 5 3 6 8 8 8 5 5 6 7 10 12 13 10 8
2 4 3 4 1 2 7 7 11 13 8 17 9 19 11 3 11 16 18 17 14 11 10 10 8 6 7 7 4 2 4 5 7 7 7 7 7 8 9 11 12 11 8 6
4 9 6 4 2 2 10 18 21 11 9 13 18 14 9 8 15 20 20 18 15 12 12 11 8 8 8 6 2 3 5 6 7 8 10 10 9 9 10 10 11 11 10 6
8 7 2 3 2 7 6 3 3 16 13 18 7 6 11 6 7 14 16 18 14 12 13 10 9 10 8 4 2 1 3 6 8 9 11 12 10 9 9 10 11 12 10 10
3 7 4 3 6 8 8 5 6 8 8 18 18 7 6 7 7 6 13 12 13 13 10 9 9 9 6 4 2 2 5 6 8 11 12 13 10 9 8 10 13 13 11 12
8 8 2 3 4 6 4 1 4 4 10 3 13 12 14 13 9 11 21 15 11 11 11 12 11 7 5 3 2 3 5 7 9 10 12 12 9 8 10 12 12 11 9 7
3 2 8 7 7 9 10 2 3 2 4 5 14 14 18 13 7 4 16 13 12 13 13 11 8 5 3 1 1 4 6 8 8 10 11 9 8 11 13 12 11 12 6 2
7 8 5 4 4 8 7 5 6 3 2 4 12 16 22 9 10 11 14 16 16 15 10 7 5 2 1 1 3 5 8 9 8 10 9 8 11 11 11 11 9 7 5 3
6 8 4 12 6 4 9 6 3 1 3 2 7 7 10 12 10 14 16 15 14 12 9 5 2 0 1 3 4 7 9 9 10 11 10 11 12 10 8 8 7 5 3 3
5 5 4 2 3 12 16 12 11 7 7 4 5 7 14 13 16 15 15 14 12 9 6 3 2 2 4 5 5 7 8 8 10 11 11 12 12 11 7 5 4 4 4 4
2 10 5 7 15 10 12 12 10 8 5 2 4 6 11 18 15 16 12 11 9 7 4 3 1 3 5 6 8 8 9 9 11 11 11 12 11 7 6 4 4 5 5 6
9 8 8 9 3 4 5 6 4 4 2 7 13 14 15 18 15 14 10 8 8 7 3 1 2 4 7 8 9 9 9 10 12 11 10 9 11 8 7 7 8 8 13 12
Wind_Direction
26 124 141 156 134 154 149 126 149 129 65 100 95 90 36 81 100 120 125 129 101 81 67 84 94 107 116 121 128 136 135 145 122 139 136 156 187 138 99 83 78 73 72 73
68 108 19 90 123 105 122 129 104 79 28 112 143 75 64 68 88 140 144 132 123 116 105 95 101 116 131 139 141 138 137 156 153 157 174 155 151 113 88 68 71 79 72 68
136 143 117 103 113 108 70 113 130 128 92 70 122 93 46 57 91 111 116 129 130 128 125 117 113 112 123 135 145 146 142 139 153 175 135 111 108 128 167 144 87 59 54 60
84 6 118 131 104 111 97 60 110 128 143 160 334 248 260 151 133 138 143 150 147 150 137 141 141 132 143 148 144 134 132 137 139 138 145 160 112 74 53 49 89 72 46 62
141 123 112 82 59 73 127 118 102 107 99 138 50 245 166 166 184 172 168 173 177 177 166 164 160 140 140 155 144 133 121 108 109 107 98 87 70 66 69 64 81 12 356 345
85 29 60 105 61 83 147 92 61 57 69 253 199 213 252 205 205 185 190 189 184 185 184 173 166 164 167 164 144 112 105 95 84 84 75 85 84 83 59 20 344 309 291 277
41 13 4 67 94 68 89 93 1 219 196 228 172 207 263 239 206 185 185 185 188 187 186 184 177 167 157 125 120 118 103 93 90 94 99 96 102 78 27 354 329 312 288 265
152 156 20 0 108 157 123 171 181 214 205 219 212 231 206 266 237 199 184 179 185 192 192 185 178 175 169 157 158 132 128 126 122 123 113 118 97 28 338 285 281 278 270 271
144 138 23 55 137 166 164 155 139 111 62 265 250 267 268 30 130 177 181 184 191 193 186 182 172 169 165 155 146 145 138 133 138 120 106 46 318 329 317 301 281 276 278 284
163 126 204 134 93 50 152 141 133 68 185 233 267 278 248 221 186 179 184 196 189 162 135 127 121 121 112 117 120 109 98 110 112 55 22 2 343 320 300 292 287 296 305 302
135 128 195 184 203 170 145 147 76 108 141 200 262 251 221 252 202 190 195 194 158 138 126 116 111 111 111 105 104 102 85 60 18 20 11 339 329 311 317 323 318 313 305 303
139 123 153 189 170 251 165 162 151 177 203 148 171 269 271 277 224 196 178 148 134 132 127 122 122 123 113 104 103 101 89 69 50 45 9 6 356 353 348 348 343 338 323 310
179 134 127 97 335 208 208 169 135 117 116 193 181 254 198 243 194 185 166 151 141 138 138 137 133 116 103 94 87 84 74 69 54 29 2 352 357 360 351 340 332 331 330 322
120 137 184 210 190 159 189 185 173 161 186 189 226 246 216 210 196 175 160 154 150 150 149 141 121 108 96 82 88 88 69 47 18 0 348 330 325 320 319 321 332 335 331 327
133 196 160 129 86 226 224 201 192 207 197 212 242 229 246 221 202 186 167 158 156 160 157 142 135 128 119 124 101 78 42 17 0 335 318 293 291 298 316 333 332 333 333 328
52 184 144 195 324 335 254 234 219 227 231 244 244 262 232 237 156 171 176 171 173 172 162 154 147 140 122 110 106 36 355 337 334 321 309 295 289 308 323 332 328 324 324 326
141 149 156 234 340 322 279 240 219 211 211 218 235 248 173 184 188 184 179 181 183 181 173 163 153 147 147 134 94 8 341 341 351 332 315 308 301 308 319 319 320 322 314 292
144 127 100 183 128 245 253 193 218 230 243 215 230 193 192 201 189 179 182 182 185 178 172 169 158 149 143 115 74 11 6 358 339 330 329 324 307 304 308 316 325 321 315 296
83 133 121 199 214 304 280 232 199 197 279 217 219 185 163 134 127 205 194 191 186 178 164 155 151 139 127 130 130 14 353 340 330 331 328 319 304 297 304 319 325 319 313 301
66 76 133 150 235 260 261 264 199 159 281 224 193 180 166 151 194 234 191 179 153 145 150 146 135 133 140 131 61 353 328 328 328 328 322 318 312 305 315 320 324 318 307 297
125 48 218 202 238 281 254 227 154 195 287 178 181 179 168 195 209 137 145 144 147 144 138 130 128 126 120 92 332 305 320 317 311 316 319 325 329 320 317 317 316 313 284 230
196 176 195 136 210 273 181 138 195 232 239 208 195 191 193 172 136 127 127 133 135 131 124 120 118 113 123 309 254 289 306 313 304 315 319 328 329 317 309 312 319 316 270 251
225 206 205 200 227 233 211 226 223 207 244 246 227 216 185 152 144 140 138 132 135 132 136 134 116 244 273 303 256 281 307 314 315 314 315 319 322 319 314 313 306 302 279 262
227 177 229 203 246 247 246 252 246 228 247 262 250 203 177 159 147 135 134 132 137 148 142 141 176 274 305 325 308 283 304 315 325 322 315 316 314 317 306 291 282 287 285 276
213 164 198 251 278 278 271 251 262 248 231 189 122 140 142 133 129 126 128 144 155 144 155 172 223 296 308 320 317 313 310 312 315 313 307 306 311 294 282 254 262 274 267 254
188 196 201 259 293 253 296 342 338 208 175 130 118 101 100 115 121 124 145 157 161 174 170 206 306 317 319 321 317 318 308 309 306 299 292 287 299 279 269 266 279 254 256 264